Weather History for KVOK - April, 2013

Change the Weather History Date:

Friday, April 26, 2013

  Actual Average Record
Temperature  
Mean Temperature 51 °F -  
Max Temperature 72 °F 60 °F 78 °F (2001)
Min Temperature 31 °F 40 °F 20 °F (2015)
Degree Days  
Heating Degree Days 14    
Growing Degree Days 1 (Base 50)    
Moisture  
Dew Point 35 °F    
Average Humidity 48    
Maximum Humidity 83    
Minimum Humidity 31    
Precipitation  
Precipitation 0.00 in - - ()
Sea Level Pressure  
Sea Level Pressure 30.15 in    
Wind  
Wind Speed 9 mph (South)    
Max Wind Speed 23 mph    
Max Gust Speed 30 mph    
Visibility 10 miles    
Events Rain    
Averages and records for this station are not official NWS values.
T = Trace of Precipitation, MM = Missing Value Source: NWS Daily Summary

Daily Weather History Graph

Daily Weather History Graph

Search for Another Location

Airport or City:

Trip Planner

Search our weather history database for the weather conditions in past years. The results will help you decide how hot, cold, wet, or windy it might be!

Date:

Astronomy

Apr. 26, 2013 Rise Set
Actual Time 5:59 AM CDT 7:58 PM CDT
Civil Twilight 5:28 AM CDT 8:29 PM CDT
Nautical Twilight 4:50 AM CDT 9:08 PM CDT
Astronomical Twilight 4:08 AM CDT 9:49 PM CDT
Moon 9:24 PM CDT 6:25 AM CDT
Length of Visible Light 15h 01m
Length of Day
13h 58m
Full, 99% of the Moon is Illuminated
Apr 26
Full
May 2
Last Quarter
May 9
New
May 17
First Quarter
May 24
Full

Hourly Weather History & Observations

Time (CDT) Temp. Windchill Dew Point Humidity Pressure Visibility Wind Dir Wind Speed Gust Speed Precip Events Conditions
12:55 AM 32.9 °F 26.7 °F 26.6 °F 78% 30.23 in 10.0 mi SSE 6.9 mph - N/A   Clear
1:55 AM 31.8 °F 28.5 °F 27.1 °F 83% 30.22 in 10.0 mi SSE 3.5 mph - N/A   Clear
2:55 AM 38.8 °F 34.6 °F 25.5 °F 59% 30.21 in 10.0 mi SSE 5.8 mph - N/A   Mostly Cloudy
3:55 AM 42.1 °F 37.1 °F 24.4 °F 50% 30.20 in 10.0 mi SSE 8.1 mph - N/A   Overcast
4:53 AM 42.8 °F 39.3 °F 24.8 °F 49% 30.19 in 10.0 mi South 5.8 mph - N/A Rain Light Rain
4:55 AM 43.3 °F 40.7 °F 25.3 °F 49% 30.20 in 10.0 mi South 4.6 mph - 0.00 in Rain Light Rain
5:13 AM 42.8 °F 38.0 °F 26.6 °F 53% 30.19 in 10.0 mi SE 8.1 mph - N/A   Partly Cloudy
5:55 AM 43.5 °F 38.9 °F 26.6 °F 51% 30.18 in 10.0 mi ESE 8.1 mph - 0.00 in   Clear
6:55 AM 44.6 °F 38.8 °F 28.4 °F 53% 30.16 in 10.0 mi SE 11.5 mph - N/A   Overcast
7:55 AM 48.2 °F - 30.2 °F 50% 30.18 in 10.0 mi SSE 4.6 mph - N/A   Overcast
8:55 AM 51.8 °F - 32.0 °F 47% 30.17 in 10.0 mi Variable 6.9 mph - N/A   Mostly Cloudy
9:55 AM 55.4 °F - 33.8 °F 44% 30.15 in 10.0 mi South 16.1 mph 21.9 mph N/A   Mostly Cloudy
10:55 AM 62.6 °F - 35.6 °F 37% 30.13 in 10.0 mi South 16.1 mph 29.9 mph N/A   Scattered Clouds
11:55 AM 66.2 °F - 35.6 °F 32% 30.12 in 10.0 mi SSW 12.7 mph 25.3 mph N/A   Partly Cloudy
12:55 PM 68.0 °F - 37.4 °F 33% 30.11 in 10.0 mi SW 13.8 mph 20.7 mph N/A   Mostly Cloudy
1:55 PM 69.8 °F - 37.4 °F 31% 30.10 in 10.0 mi SW 15.0 mph 25.3 mph N/A   Scattered Clouds
2:55 PM 71.6 °F - 39.4 °F 31% 30.07 in 10.0 mi SW 23.0 mph 28.8 mph N/A   Clear
3:55 PM 69.8 °F - 40.6 °F 35% 30.07 in 10.0 mi SSW 11.5 mph 18.4 mph N/A   Scattered Clouds
4:55 PM 70.3 °F - 42.1 °F 36% 30.07 in 10.0 mi SW 20.7 mph 27.6 mph N/A   Scattered Clouds
5:55 PM 70.3 °F - 44.6 °F 40% 30.08 in 10.0 mi SSW 15.0 mph 21.9 mph N/A   Partly Cloudy
6:55 PM 67.8 °F - 45.0 °F 44% 30.09 in 10.0 mi SW 11.5 mph 19.6 mph N/A   Clear
7:55 PM 64.9 °F - 45.1 °F 49% 30.11 in 10.0 mi SW 12.7 mph - N/A   Clear
8:55 PM 63.1 °F - 44.6 °F 51% 30.13 in 10.0 mi SSW 16.1 mph 25.3 mph N/A   Clear
9:55 PM 61.2 °F - 44.4 °F 54% 30.14 in 10.0 mi South 9.2 mph - N/A   Clear
10:55 PM 59.4 °F - 43.5 °F 56% 30.16 in 10.0 mi SSW 9.2 mph - N/A   Clear
11:55 PM 58.5 °F - 44.4 °F 60% 30.16 in 10.0 mi SSW 15.0 mph 23.0 mph N/A   Partly Cloudy